Weather History for K3R7 - July, 2013

Change the Weather History Date:

Sunday, July 7, 2013

  Actual Average (KLCH) Record (KLCH)
Temperature  
Mean Temperature 80 °F 83 °F  
Max Temperature 87 °F 91 °F 102 °F (1939)
Min Temperature 74 °F 75 °F 62 °F (1924)
Degree Days  
Heating Degree Days 0 0  
Month to date heating degree days 0  
Since 1 June heating degree days 0  
Since 1 July heating degree days 0  
Cooling Degree Days 15 18  
Month to date cooling degree days 123  
Year to date cooling degree days 1141  
Since 1 June cooling degree days 603  
Growing Degree Days 30 (Base 50)    
Moisture  
Dew Point 74 °F    
Average Humidity 86    
Maximum Humidity 99    
Minimum Humidity 66    
Precipitation  
Precipitation 0.00 in 0.20 in 1.36 in (1972)
Month to date precipitation 1.45  
Year to date precipitation 29.18  
Snow  
Snow 0.00 in 0.00 in 0.00 in ()
Month to date snowfall 0.0  
Since 1 June snowfall 0.0  
Since 1 July snowfall 0.0  
Snow Depth -    
Sea Level Pressure  
Sea Level Pressure 30.01 in    
Wind  
Wind Speed 6 mph (SE)    
Max Wind Speed 16 mph    
Max Gust Speed 23 mph    
Visibility 10 miles    
Events Thunderstorm    
T = Trace of Precipitation, MM = Missing Value Source: NWS Daily Summary

Daily Weather History Graph

Daily Weather History Graph

Search for Another Location

Airport or City:

Trip Planner

Search our weather history database for the weather conditions in past years. The results will help you decide how hot, cold, wet, or windy it might be!

Date:

Astronomy

Jul. 07, 2013 Rise Set
Actual Time 6:15 AM CDT 8:15 PM CDT
Civil Twilight 5:48 AM CDT 8:43 PM CDT
Nautical Twilight 5:14 AM CDT 9:16 PM CDT
Astronomical Twilight 4:39 AM CDT 9:51 PM CDT
Moon 5:47 AM CDT (7/7) 7:45 PM CDT (7/7)
Length of Visible Light 14h 55m
Length of Day
14h 00m
Waning Crescent, 0% of the Moon is Illuminated
Jul 7
Waning Crescent
Jul 8
New
Jul 15
First Quarter
Jul 22
Full
Jul 29
Last Quarter

Hourly Weather History & Observations

Time (CDT) Temp. Heat Index Dew Point Humidity Pressure Visibility Wind Dir Wind Speed Gust Speed Precip Events Conditions
12:15 AM 76.1 °F - 73.9 °F 93% 29.96 in 10.0 mi North - - N/A   Clear
12:35 AM 76.1 °F - 73.9 °F 93% 29.95 in 10.0 mi North - - N/A   Clear
12:55 AM 75.6 °F - 73.9 °F 95% 29.95 in 10.0 mi East 5.8 mph - N/A   Clear
1:15 AM 75.4 °F - 74.1 °F 96% 29.95 in 10.0 mi East 6.9 mph - N/A   Clear
1:35 AM 75.4 °F - 74.3 °F 96% 29.95 in 10.0 mi ESE 5.8 mph - N/A   Clear
1:55 AM 75.4 °F - 73.8 °F 95% 29.95 in 10.0 mi East 8.1 mph - N/A   Clear
2:15 AM 75.4 °F - 73.8 °F 95% 29.95 in 10.0 mi ESE 5.8 mph - N/A   Clear
2:35 AM 75.2 °F - 73.6 °F 95% 29.94 in 10.0 mi East 6.9 mph - N/A   Clear
2:55 AM 75.2 °F - 73.6 °F 95% 29.95 in 10.0 mi East 6.9 mph - N/A   Clear
3:15 AM 74.8 °F - 73.6 °F 96% 29.95 in 10.0 mi ESE 5.8 mph - N/A   Clear
3:35 AM 74.8 °F - 73.8 °F 96% 29.96 in 10.0 mi SE 6.9 mph - N/A   Scattered Clouds
3:55 AM 74.8 °F - 73.8 °F 96% 29.96 in 10.0 mi ESE 6.9 mph - N/A   Scattered Clouds
4:15 AM 74.8 °F - 73.8 °F 96% 29.97 in 10.0 mi ESE 4.6 mph - N/A   Scattered Clouds
4:35 AM 74.8 °F - 73.8 °F 96% 29.96 in 10.0 mi East 5.8 mph - N/A   Scattered Clouds
4:55 AM 74.8 °F - 73.9 °F 97% 29.96 in 10.0 mi East 5.8 mph - N/A   Clear
5:15 AM 74.7 °F - 73.9 °F 98% 29.96 in 10.0 mi East 5.8 mph - N/A   Clear
5:35 AM 74.5 °F - 73.8 °F 98% 29.97 in 10.0 mi East 4.6 mph - N/A Thunderstorm Thunderstorm
5:55 AM 74.7 °F - 73.9 °F 98% 29.97 in 10.0 mi East 5.8 mph - N/A Thunderstorm Thunderstorm
6:15 AM 74.7 °F - 74.3 °F 99% 29.97 in 10.0 mi North - - N/A   Clear
6:35 AM 75.2 °F - 74.3 °F 97% 29.98 in 10.0 mi North - - N/A Thunderstorm Scattered Clouds
6:55 AM 75.6 °F - 74.7 °F 97% 29.99 in 10.0 mi SE 3.5 mph - N/A Thunderstorm Mostly Cloudy
7:15 AM 76.3 °F - 74.7 °F 95% 30.00 in 10.0 mi SSE 4.6 mph - N/A   Overcast
7:35 AM 76.5 °F - 74.7 °F 94% 30.00 in 10.0 mi SSE 3.5 mph - N/A   Mostly Cloudy
7:55 AM 76.5 °F - 74.3 °F 93% 30.01 in 10.0 mi Calm Calm - N/A   Scattered Clouds
8:15 AM 77.0 °F - 74.1 °F 91% 30.02 in 10.0 mi Calm Calm - N/A   Scattered Clouds
8:35 AM 77.5 °F - 73.9 °F 89% 30.02 in 10.0 mi Calm Calm - N/A   Overcast
8:55 AM 78.3 °F - 74.7 °F 89% 30.02 in 10.0 mi Calm Calm - N/A   Overcast
9:15 AM 79.5 °F - 75.6 °F 88% 30.02 in 10.0 mi ENE 3.5 mph - N/A   Mostly Cloudy
9:35 AM 81.0 °F 86.9 °F 75.2 °F 83% 30.02 in 10.0 mi Calm Calm - N/A   Scattered Clouds
9:55 AM 82.2 °F 89.3 °F 75.4 °F 80% 30.02 in 10.0 mi East 3.5 mph - N/A   Scattered Clouds
10:15 AM 82.6 °F 89.9 °F 75.6 °F 79% 30.02 in 10.0 mi ESE 4.6 mph - N/A   Scattered Clouds
10:35 AM 83.3 °F 91.8 °F 76.1 °F 79% 30.03 in 10.0 mi ESE 5.8 mph - N/A   Scattered Clouds
10:55 AM 83.8 °F 92.1 °F 75.6 °F 76% 30.03 in 10.0 mi SE 4.6 mph - N/A Thunderstorm Scattered Clouds
11:15 AM 85.5 °F 95.0 °F 76.1 °F 73% 30.02 in 10.0 mi SE 8.1 mph - N/A   Clear
11:35 AM 86.0 °F 94.2 °F 74.3 °F 68% 30.02 in 10.0 mi South 6.9 mph - N/A   Clear
11:55 AM 86.9 °F 95.9 °F 74.8 °F 67% 30.03 in 10.0 mi SSE 8.1 mph - N/A   Clear
12:15 PM 86.5 °F 95.5 °F 74.7 °F 68% 30.03 in 10.0 mi South 5.8 mph - N/A   Mostly Cloudy
12:35 PM 86.0 °F 95.1 °F 75.0 °F 70% 30.03 in 10.0 mi South 10.4 mph - N/A   Overcast
12:55 PM 85.3 °F 94.6 °F 75.6 °F 73% 30.03 in 10.0 mi SSE 11.5 mph 16.1 mph N/A   Overcast
1:15 PM 83.3 °F 88.7 °F 72.1 °F 69% 30.03 in 10.0 mi South 11.5 mph 18.4 mph N/A   Overcast
1:35 PM 83.8 °F 89.5 °F 72.1 °F 68% 30.03 in 10.0 mi South 8.1 mph 11.5 mph N/A   Scattered Clouds
1:55 PM 84.0 °F 89.3 °F 71.4 °F 66% 30.03 in 10.0 mi SSE 6.9 mph - N/A   Scattered Clouds
2:15 PM 85.3 °F 91.8 °F 72.7 °F 66% 30.03 in 10.0 mi South 16.1 mph 20.7 mph N/A   Mostly Cloudy
2:35 PM 81.3 °F 86.3 °F 73.0 °F 76% 30.04 in 10.0 mi South 11.5 mph 23.0 mph N/A   Mostly Cloudy
2:55 PM 80.6 °F 85.4 °F 73.4 °F 79% 30.04 in 10.0 mi South 12.7 mph 17.3 mph N/A Thunderstorm Clear
3:15 PM 80.6 °F 85.0 °F 72.7 °F 77% 30.04 in 10.0 mi South 10.4 mph 17.3 mph N/A   Scattered Clouds
3:35 PM 79.9 °F - 73.6 °F 81% 30.04 in 10.0 mi SSW 15.0 mph 19.6 mph N/A   Scattered Clouds
3:55 PM 79.7 °F - 73.9 °F 82% 30.05 in 10.0 mi South 11.5 mph 18.4 mph N/A   Mostly Cloudy
4:15 PM 80.1 °F 84.5 °F 73.6 °F 81% 30.04 in 10.0 mi SSW 13.8 mph 18.4 mph N/A   Mostly Cloudy
4:35 PM 80.1 °F 84.5 °F 73.8 °F 81% 30.03 in 10.0 mi South 11.5 mph 17.3 mph N/A   Scattered Clouds
4:55 PM 80.8 °F 85.8 °F 73.8 °F 79% 30.02 in 10.0 mi South 10.4 mph 16.1 mph N/A   Scattered Clouds
5:15 PM 80.8 °F 85.9 °F 73.9 °F 80% 30.02 in 10.0 mi South 12.7 mph 18.4 mph N/A   Scattered Clouds
5:35 PM 80.1 °F 84.5 °F 73.9 °F 81% 30.02 in 10.0 mi SSW 8.1 mph - N/A   Scattered Clouds
5:55 PM 80.1 °F 84.6 °F 74.3 °F 82% 30.03 in 10.0 mi SSW 8.1 mph - N/A   Mostly Cloudy
6:15 PM 80.1 °F 84.6 °F 74.3 °F 82% 30.03 in 10.0 mi SSW 4.6 mph - N/A   Mostly Cloudy
6:35 PM 80.1 °F 84.6 °F 74.3 °F 82% 30.03 in 10.0 mi South 6.9 mph - N/A   Scattered Clouds
6:55 PM 79.9 °F - 74.3 °F 83% 30.03 in 10.0 mi South 5.8 mph - N/A   Scattered Clouds
7:15 PM 79.7 °F - 74.3 °F 83% 30.03 in 10.0 mi South 5.8 mph - N/A   Clear
7:35 PM 79.2 °F - 73.8 °F 83% 30.03 in 10.0 mi SSE 3.5 mph - N/A   Clear
7:55 PM 79.0 °F - 73.8 °F 84% 30.03 in 10.0 mi SSE 3.5 mph - N/A   Scattered Clouds
8:15 PM 78.4 °F - 74.3 °F 87% 30.03 in 10.0 mi SSE 4.6 mph - N/A   Clear
8:35 PM 78.1 °F - 74.3 °F 88% 30.04 in 10.0 mi Calm Calm - N/A   Clear
8:55 PM 77.9 °F - 74.3 °F 89% 30.05 in 10.0 mi SE 3.5 mph - N/A   Clear
9:15 PM 77.5 °F - 74.3 °F 90% 30.04 in 10.0 mi SSE 3.5 mph - N/A   Clear
9:35 PM 77.0 °F - 73.8 °F 90% 30.05 in 10.0 mi SE 5.8 mph - N/A   Clear
9:55 PM 76.5 °F - 74.3 °F 93% 30.05 in 10.0 mi SE 5.8 mph - N/A   Clear
10:15 PM 76.3 °F - 74.3 °F 94% 30.05 in 10.0 mi SE 5.8 mph - N/A   Clear
10:35 PM 75.6 °F - 73.8 °F 94% 30.06 in 10.0 mi East 5.8 mph - N/A   Clear
10:55 PM 75.2 °F - 73.6 °F 95% 30.07 in 10.0 mi East 6.9 mph - N/A   Clear
11:15 PM 75.2 °F - 73.4 °F 94% 30.06 in 10.0 mi ESE 5.8 mph - N/A   Clear
11:35 PM 74.8 °F - 73.4 °F 95% 30.06 in 10.0 mi North - - N/A   Clear
11:55 PM 75.2 °F - 73.4 °F 94% 30.05 in 10.0 mi SE 6.9 mph - N/A   Clear